Location: York
(31.8935°S, 116.7682°E)
Time: 18:02:50
(UTC+08:00)

deb Explorer IX - Pass Details

Date: 04 October 2022
Orbit: 533 x 1057 km, 38.8° (Epoch: 30 November)

Event Time Altitude Azimuth Distance (km) Brightness Sun altitude
Rises 22:07:12 0° 246° (WSW) 3,252 ? -44.6°
Enters shadow 22:09:21 - 243° (WSW) 2,429 ? -44.9°
Reaches altitude 10° 22:09:52 10° 242° (WSW) 2,231 - -44.9°
Maximum altitude 22:14:59 62° 162° (SSE) 737 - -45.6°
Drops below altitude 10° 22:19:23 10° 80° (E) 1,930 - -46.2°
Sets 22:21:33 0° 76° (ENE) 2,775 - -46.5°
